Weather History for Smithfield, NC

Change the Weather History Date:

Sunday, March 2, 2014

  Actual Average Record
Temperature  
Mean Temperature 56 °F -  
Max Temperature 69 °F 62 °F 82 °F (1976)
Min Temperature 42 °F 34 °F 15 °F (1980)
Degree Days  
Heating Degree Days 10    
Growing Degree Days 6 (Base 50)    
Moisture  
Dew Point 42 °F    
Average Humidity 50    
Maximum Humidity 100    
Minimum Humidity 35    
Precipitation  
Precipitation 0.00 in - - ()
Sea Level Pressure  
Sea Level Pressure 30.10 in    
Wind  
Wind Speed 3 mph (SSW)    
Max Wind Speed 14 mph    
Max Gust Speed 21 mph    
Visibility 9 miles    
Events      
Averages and records for this station are not official NWS values.
T = Trace of Precipitation, MM = Missing Value Source: NWS Daily Summary

Daily Weather History Graph

Daily Weather History Graph

Search for Another Location

Airport:

Trip Planner

Search our weather history database for the weather conditions in past years. The results will help you decide how hot, cold, wet, or windy it might be!

Date:

Astronomy

Mar. 02, 2014 Rise Set
Actual Time 6:42 AM EST 6:09 PM EST
Civil Twilight 6:16 AM EST 6:35 PM EST
Nautical Twilight 5:47 AM EST 7:04 PM EST
Astronomical Twilight 5:17 AM EST 7:34 PM EST
Moon 7:16 AM EST (3/2) 7:58 PM EST (3/2)
Length of Visible Light 12h 18m
Length of Day
11h 27m
Waxing Crescent, 3% of the Moon is Illuminated
Mar 2
Waxing Crescent
Mar 8
First Quarter
Mar 16
Full
Mar 23
Last Quarter
Mar 30
New

Hourly Weather History & Observations

Time (EST) Temp. Windchill Dew Point Humidity Pressure Visibility Wind Dir Wind Speed Gust Speed Precip Events Conditions
12:15 AM - - - N/A% 30.24 in 10.0 mi Calm Calm - N/A   Clear
12:35 AM - - - N/A% 30.24 in 10.0 mi Calm Calm - N/A   Clear
12:55 AM - - - N/A% 30.23 in 7.0 mi Calm Calm - N/A   Clear
1:10 AM - - - N/A% 30.24 in 7.0 mi Calm Calm - N/A   Clear
1:35 AM - - - N/A% 30.25 in 5.0 mi Calm Calm - N/A   Clear
1:55 AM - - - N/A% 30.24 in 7.0 mi Calm Calm - N/A   Clear
2:15 AM - - - N/A% 30.23 in 7.0 mi Calm Calm - N/A   Clear
2:35 AM - - - N/A% 30.23 in 7.0 mi Calm Calm - N/A   Clear
2:55 AM - - - N/A% 30.21 in 5.0 mi Calm Calm - N/A   Clear
3:15 AM - - - N/A% 30.20 in 7.0 mi Calm Calm - N/A   Clear
3:35 AM - - - N/A% 30.20 in 5.0 mi Calm Calm - N/A   Clear
3:55 AM - - - N/A% 30.20 in 5.0 mi Calm Calm - N/A   Clear
4:15 AM - - - N/A% 30.20 in 7.0 mi Calm Calm - N/A   Clear
4:35 AM - - - N/A% 30.20 in 7.0 mi Calm Calm - N/A   Clear
4:55 AM - - - N/A% 30.20 in 7.0 mi Calm Calm - N/A   Clear
5:15 AM - - - N/A% 30.20 in 10.0 mi Calm Calm - N/A   Clear
5:35 AM - - - N/A% 30.20 in 10.0 mi Calm Calm - N/A   Clear
5:50 AM - - - N/A% 30.20 in 7.0 mi Calm Calm - N/A   Clear
6:15 AM - - - N/A% 30.21 in 7.0 mi Calm Calm - N/A   Clear
6:35 AM - - - N/A% 30.22 in 7.0 mi Calm Calm - N/A   Clear
6:55 AM - - - N/A% 30.23 in 7.0 mi Calm Calm - N/A   Clear
7:15 AM - - - N/A% 30.23 in 7.0 mi Calm Calm - N/A   Clear
7:35 AM - - - N/A% 30.23 in 10.0 mi Calm Calm - N/A   Clear
7:55 AM - - - N/A% 30.22 in 10.0 mi Calm Calm - N/A   Clear
8:15 AM - - - N/A% 30.22 in 10.0 mi Calm Calm - N/A   Clear
8:35 AM 42.8 °F - 42.8 °F 100% 30.22 in 10.0 mi Calm Calm - N/A   Clear
8:55 AM 44.6 °F - 41.0 °F 87% 30.23 in 10.0 mi Calm Calm - N/A   Clear
9:15 AM 46.4 °F 44.3 °F 39.2 °F 76% 30.23 in 10.0 mi SW 4.6 mph - N/A   Clear
9:35 AM 50.0 °F - 41.0 °F 71% 30.22 in 10.0 mi WSW 3.5 mph - N/A   Clear
9:55 AM 53.6 °F - 41.0 °F 62% 30.21 in 10.0 mi West 5.8 mph - N/A   Clear
10:15 AM 55.4 °F - 41.0 °F 58% 30.20 in 10.0 mi SW 6.9 mph - N/A   Clear
10:30 AM 57.2 °F - 39.2 °F 51% 30.19 in 10.0 mi SW 6.9 mph - N/A   Clear
10:55 AM 59.0 °F - 37.4 °F 45% 30.17 in 10.0 mi WSW 5.8 mph - N/A   Clear
11:15 AM 60.8 °F - 37.4 °F 42% 30.16 in 10.0 mi SW 3.5 mph - N/A   Clear
11:35 AM 62.6 °F - 37.4 °F 39% 30.14 in 10.0 mi SSW 8.1 mph - N/A   Clear
11:55 AM 62.6 °F - 37.4 °F 39% 30.12 in 10.0 mi SSW 10.4 mph 16.1 mph N/A   Clear
12:15 PM 64.4 °F - 37.4 °F 37% 30.10 in 10.0 mi SSE 10.4 mph - N/A   Clear
12:35 PM 64.4 °F - 39.2 °F 40% 30.08 in 10.0 mi South 9.2 mph - N/A   Clear
12:55 PM 64.4 °F - 39.2 °F 40% 30.07 in 10.0 mi SSW 10.4 mph - N/A   Clear
1:15 PM 68.0 °F - 39.2 °F 35% 30.05 in 10.0 mi South 12.7 mph - N/A   Clear
1:35 PM 68.0 °F - 41.0 °F 37% 30.04 in 10.0 mi South 12.7 mph 18.4 mph N/A   Clear
1:55 PM 68.0 °F - 41.0 °F 37% 30.03 in 10.0 mi SSW 12.7 mph 19.6 mph N/A   Clear
2:15 PM 68.0 °F - 41.0 °F 37% 30.02 in 10.0 mi SSW 12.7 mph 20.7 mph N/A   Clear
2:35 PM 68.0 °F - 41.0 °F 37% 30.02 in 10.0 mi SSW 13.8 mph 20.7 mph N/A   Clear
2:55 PM 69.8 °F - 41.0 °F 35% 30.01 in 10.0 mi SW 9.2 mph 18.4 mph N/A   Clear
3:15 PM 68.0 °F - 41.0 °F 37% 30.01 in 10.0 mi SSW 9.2 mph 19.6 mph N/A   Clear
3:35 PM 69.8 °F - 41.0 °F 35% 30.00 in 10.0 mi SSW 13.8 mph 20.7 mph N/A   Clear
3:55 PM 69.8 °F - 41.0 °F 35% 30.00 in 10.0 mi SW 11.5 mph 18.4 mph N/A   Clear
4:15 PM 68.0 °F - 41.0 °F 37% 30.00 in 10.0 mi SW 9.2 mph 18.4 mph N/A   Clear
4:35 PM 68.0 °F - 41.0 °F 37% 29.99 in 10.0 mi SSW 8.1 mph - N/A   Clear
4:55 PM 68.0 °F - 41.0 °F 37% 30.00 in 10.0 mi SSW 8.1 mph 16.1 mph N/A   Clear
5:15 PM 68.0 °F - 41.0 °F 37% 30.00 in 10.0 mi SW 6.9 mph - N/A   Clear
5:35 PM 64.4 °F - 42.8 °F 45% 29.99 in 10.0 mi SSW 6.9 mph - N/A   Clear
5:55 PM 62.6 °F - 42.8 °F 48% 29.99 in 10.0 mi South 6.9 mph - N/A   Clear
6:15 PM 62.6 °F - 42.8 °F 48% 29.99 in 10.0 mi South 5.8 mph - N/A   Clear
6:35 PM 62.6 °F - 42.8 °F 48% 29.98 in 10.0 mi South 5.8 mph - N/A   Clear
6:55 PM 60.8 °F - 42.8 °F 52% 29.98 in 10.0 mi South 5.8 mph - N/A   Clear
7:15 PM 60.8 °F - 42.8 °F 52% 29.98 in 10.0 mi South 4.6 mph - N/A   Clear
7:35 PM 60.8 °F - 44.6 °F 55% 29.97 in 10.0 mi South 5.8 mph - N/A   Clear
7:55 PM 60.8 °F - 44.6 °F 55% 29.97 in 10.0 mi South 6.9 mph - N/A   Clear
8:15 PM 60.8 °F - 44.6 °F 55% 29.96 in 10.0 mi South 9.2 mph - N/A   Clear
8:35 PM 60.8 °F - 44.6 °F 55% 29.96 in 10.0 mi South 8.1 mph - N/A   Clear
8:55 PM 60.8 °F - 44.6 °F 55% 29.95 in 10.0 mi South 8.1 mph - N/A   Clear
9:15 PM 62.6 °F - 44.6 °F 52% 29.96 in 10.0 mi SSW 5.8 mph - N/A   Clear
9:35 PM 62.6 °F - 44.6 °F 52% 29.96 in 10.0 mi SW 5.8 mph - N/A   Clear
9:55 PM 60.8 °F - 44.6 °F 55% 29.95 in 10.0 mi SSW 4.6 mph - N/A   Clear
10:15 PM 60.8 °F - 44.6 °F 55% 29.96 in 10.0 mi South 6.9 mph - N/A   Clear
10:35 PM 59.0 °F - 44.6 °F 59% 29.95 in 10.0 mi SSW 5.8 mph - N/A   Clear
10:55 PM 59.0 °F - 44.6 °F 59% 29.95 in 10.0 mi SSW 5.8 mph - N/A   Clear
11:15 PM 59.0 °F - 44.6 °F 59% 29.94 in 10.0 mi SSW 6.9 mph - N/A   Clear
11:35 PM 57.2 °F - 44.6 °F 63% 29.93 in 10.0 mi South 5.8 mph - N/A   Clear
11:55 PM 57.2 °F - 44.6 °F 63% 29.93 in 10.0 mi SSW 5.8 mph - N/A   Clear